Weather History for Dodge City, KS

Change the Weather History Date:

Saturday, December 24, 2011

  Actual Average Record
Temperature  
Mean Temperature 24 °F -  
Max Temperature 33 °F 38 °F 86 °F (1955)
Min Temperature 14 °F 17 °F -11 °F (1879)
Degree Days  
Heating Degree Days 42    
Moisture  
Dew Point 14 °F    
Average Humidity 69    
Maximum Humidity 82    
Minimum Humidity 56    
Precipitation  
Precipitation 0.00 in - - ()
Sea Level Pressure  
Sea Level Pressure 30.45 in    
Wind  
Wind Speed 9 mph (WNW)    
Max Wind Speed 17 mph    
Max Gust Speed -    
Visibility 10 miles    
Events      
Averages and records for this station are not official NWS values.
T = Trace of Precipitation, MM = Missing Value Source: NWS Daily Summary

Daily Weather History Graph

Daily Weather History Graph

Search for Another Location

Airport:

Trip Planner

Search our weather history database for the weather conditions in past years. The results will help you decide how hot, cold, wet, or windy it might be!

Date:

Astronomy

Dec. 24, 2011 Rise Set
Actual Time 7:52 AM CST 5:26 PM CST
Civil Twilight 7:23 AM CST 5:55 PM CST
Nautical Twilight 6:50 AM CST 6:28 PM CST
Astronomical Twilight 6:18 AM CST 7:00 PM CST
Moon 7:42 AM CST (12/24) 5:40 PM CST (12/24)
Length of Visible Light 10h 32m
Length of Day
9h 33m
New Moon, 0% of the Moon is Illuminated
Dec 24
New Moon
Dec 24
New
Jan 1
First Quarter
Jan 9
Full
Jan 16
Last Quarter

Hourly Weather History & Observations

Time (CST) Temp. Windchill Dew Point Humidity Pressure Visibility Wind Dir Wind Speed Gust Speed Precip Events Conditions
12:52 AM 15.8 °F 6.1 °F 6.8 °F 68% 30.32 in 10.0 mi West 6.9 mph - N/A   Clear
1:52 AM 16.0 °F 3.6 °F 6.1 °F 65% 30.42 in 10.0 mi West 10.4 mph - N/A   Clear
2:52 AM 16.0 °F 3.6 °F 7.0 °F 68% 30.43 in 10.0 mi West 10.4 mph - N/A   Clear
3:52 AM 18.0 °F 5.4 °F 8.1 °F 65% 30.42 in 10.0 mi WNW 11.5 mph - N/A   Clear
4:52 AM 18.0 °F 12.7 °F 8.1 °F 65% 30.41 in 10.0 mi WSW 3.5 mph - N/A   Clear
5:52 AM 14.0 °F 5.1 °F 7.0 °F 74% 30.44 in 10.0 mi WSW 5.8 mph - N/A   Clear
6:52 AM 14.0 °F 2.9 °F 6.1 °F 71% 30.47 in 10.0 mi West 8.1 mph - N/A   Clear
7:52 AM 16.0 °F 6.3 °F 8.1 °F 71% 30.48 in 10.0 mi WSW 6.9 mph - N/A   Clear
8:52 AM 17.1 °F 7.6 °F 8.1 °F 68% 30.48 in 10.0 mi West 6.9 mph - N/A   Clear
9:52 AM 21.0 °F 6.6 °F 10.0 °F 63% 30.51 in 10.0 mi WNW 17.3 mph - N/A   Clear
10:52 AM 26.1 °F 14.0 °F 14.0 °F 60% 30.50 in 10.0 mi NW 15.0 mph - N/A   Clear
11:52 AM 28.9 °F 17.7 °F 17.1 °F 61% 30.47 in 10.0 mi NW 15.0 mph - N/A   Clear
12:52 PM 30.9 °F 22.2 °F 18.0 °F 59% 30.44 in 10.0 mi NW 10.4 mph - N/A   Clear
1:52 PM 33.8 °F 27.0 °F 19.4 °F 56% 30.33 in 10.0 mi NW 8.1 mph - N/A   Clear
2:52 PM 33.1 °F 25.5 °F 21.0 °F 61% 30.41 in 10.0 mi NW 9.2 mph - N/A   Clear
3:52 PM 33.1 °F 24.9 °F 21.9 °F 64% 30.42 in 10.0 mi NW 10.4 mph - N/A   Clear
4:52 PM 32.0 °F 26.4 °F 21.0 °F 64% 30.43 in 10.0 mi West 5.8 mph - N/A   Clear
5:52 PM 26.1 °F 20.5 °F 18.0 °F 71% 30.46 in 10.0 mi West 4.6 mph - N/A   Clear
6:52 PM 25.0 °F 16.3 °F 19.0 °F 78% 30.47 in 10.0 mi West 8.1 mph - N/A   Clear
7:52 PM 23.0 °F 15.8 °F 18.0 °F 81% 30.48 in 10.0 mi SW 5.8 mph - N/A   Clear
8:52 PM 21.9 °F 12.5 °F 17.1 °F 82% 30.47 in 10.0 mi WNW 8.1 mph - N/A   Clear
9:52 PM 21.9 °F 11.7 °F 16.0 °F 78% 30.47 in 10.0 mi WNW 9.2 mph - N/A   Clear
10:52 PM 21.9 °F 11.7 °F 16.0 °F 78% 30.48 in 10.0 mi NW 9.2 mph - N/A   Clear
11:52 PM 21.0 °F 12.4 °F 15.1 °F 78% 30.48 in 10.0 mi WNW 6.9 mph - N/A   Clear